Regional Weather Roundup
Issued by NWS

Home | Current Version | Previous Version | Text Only | Print | Product List | Glossary Off
Versions: 1 2 3 4 5 6 7 8 9 10 11 12 13 14 15 16 17 18 19 20 21 22 23 24 25 26 27 28 29 30 31 32 33 34 35 36 37 38 39 40 41 42 43 44 45 46 47 48 49 50

000
ASUS43 KLSX 040407
RWRMO

WEATHER SUMMARY FOR MISSOURI
NATIONAL WEATHER SERVICE SPRINGFIELD MO
1000 PM CST SAT DEC 03 2016

NOTE: "FAIR" INDICATES FEW OR NO CLOUDS BELOW 12,000 FEET WITH NO
       SIGNIFICANT WEATHER AND/OR OBSTRUCTIONS TO VISIBILITY.
       CURRENT SKY AND/OR WEATHER CONDITIONS ARE NOT AVAILABLE FOR
       CHILLICOTHE AND FARMINGTON.

MOZ001>031-035>038-043-044-053-054-040500-
...NORTHERN AND WESTERN MISSOURI...

CITY           SKY/WX    TMP DP  RH WIND       PRES   REMARKS
KANSAS CTY INT LGT RAIN  42  34  73 SE6       30.10F
KANSAS C DTWN  LGT RAIN  46  36  68 S12       30.11F
LEE`S SUMMIT   CLOUDY    44  36  73 S13       30.12F
ST JOSEPH      CLOUDY    40  36  86 CALM      30.12S
CHILLICOTHE      N/A     42  32  67 VRB7      30.15F
KIRKSVILLE     CLOUDY    39  32  76 SE12      30.17S

$$
MOZ066>068-077>081-088>096-101>105-040500-
...SOUTHWEST MISSOURI...

CITY           SKY/WX    TMP DP  RH WIND       PRES   REMARKS
SPRINGFIELD    LGT RAIN  39  36  89 E13       30.10F
JOPLIN         CLOUDY    41  39  93 MISG      30.10S
BRANSON        CLOUDY    37  37 100 E9        30.13R FOG

$$
MOZ032>034-039>042-045>050-055>058-069>072-040500-
...CENTRAL MISSOURI...

CITY           SKY/WX    TMP DP  RH WIND       PRES   REMARKS
COLUMBIA       LGT RAIN  41  32  70 SE7       30.19S
JEFFERSON CITY CLOUDY    42  32  67 E6        30.20F
ROLLA          CLOUDY    40  32  73 SE5       30.17F
SEDALIA        CLOUDY    43  32  65 SE8       30.15F
WHITEMAN AFB   CLOUDY    42  38  83 S8        30.13S
WARRENSBURG    DRIZZLE   41  36  81 S5        30.13F
OSAGE BEACH    LGT RAIN  40  35  83 SE5       30.18F

$$
MOZ051-052-059>065-040500-
...EAST CENTRAL MISSOURI...

CITY           SKY/WX    TMP DP  RH WIND       PRES   REMARKS
ST LOUIS INTL  CLOUDY    42  32  67 E9        30.24S
SPIRIT OF STL  CLOUDY    41  33  73 E6        30.23F
ST CHARLES     CLOUDY    40  35  83 E8        30.24S

$$
MOZ072>076-082>087-097>100-106>115-040500-
...SOUTH CENTRAL AND SOUTHEAST MISSOURI...

CITY           SKY/WX    TMP DP  RH WIND       PRES   REMARKS
CAPE GIRARDEAU LGT RAIN  39  34  82 E7        30.21F
FARMINGTON     LGT RAIN  39  33  79 SE6       30.21F
POPLAR BLUFF   LGT RAIN  40  38  93 E3        30.20F
WEST PLAINS    MIX PCPN  37  35  92 E8        30.15F

$$



USA.gov is the U.S. government's official web portal to all federal, state and local government web resources and services.